Location: Central Falls
(41.8900°N, 71.3929°W)
Time: 14:36:44
(UTC+00:00)

Vanguard 1 - Pass Details

Date: 05 December 2023
Orbit: 653 x 3826 km, 34.3° (Epoch: 24 February)

Event Time Altitude Azimuth Distance (km) Brightness Sun altitude
Rises 06:22:27 0° 283° (WNW) 7,946 - -60.4°
Reaches altitude 10° 06:30:05 10° 271° (W) 6,914 - -59.2°
Maximum altitude 06:44:11 21° 232° (SW) 5,518 - -56.9°
Drops below altitude 10° 06:55:51 10° 191° (SSW) 5,558 - -54.9°
Sets 07:01:06 0° 176° (S) 6,052 - -54.0°
